User: anonymous   Login
Location: Observatoire de Paris
(48.8363°N, 2.3365°E)
Time: 13:36:50
(UTC+01:00)
Language:

STRAND 1 - Orbit

View from above orbital plane
View from above orbital plane
View from above satellite
View from above satellite

Ground track
Ground track

The orbit data is extracted from the following two-line orbital elements,

1 39090U 13009E   21262.80471962  .00000056  00000-0  34418-4 0  9999
2 39090  98.4216 102.7537 0009279   5.3193 354.8090 14.35183518448572
Epoch (UTC): 19 September 2021 19:18:47
Eccentricity: 0.0009279
inclination: 98.4216°
perigee height: 768 km
apogee height: 781 km
right ascension of ascending node: 102.7537°
argument of perigee: 5.3193°
revolutions per day: 14.35183518
mean anomaly at epoch: 354.8090°
orbit number at epoch: 44857

The dashed part of the orbit path shows where the satellite is in the earth's shadow,  

DLR